TimeEDT,TemperatureF,Dew PointF,Humidity,Sea Level PressureIn,VisibilityMPH,Wind Direction,Wind SpeedMPH,Gust SpeedMPH,PrecipitationIn,Events,Conditions,WindDirDegrees,DateUTC
12:53 AM,75.0,70.0,84,29.81,10.0,NE,10.4,20.7,0.00,Rain,Light Rain,40,2012-10-25 04:53:00
1:53 AM,77.0,71.1,82,29.78,10.0,NNE,13.8,20.7,0.00,,Clear,30,2012-10-25 05:53:00
2:53 AM,78.1,71.1,79,29.75,10.0,NE,15.0,23.0,N/A,,Clear,50,2012-10-25 06:53:00
3:53 AM,78.1,71.1,79,29.74,10.0,NE,10.4,19.6,N/A,,Clear,40,2012-10-25 07:53:00
4:53 AM,78.1,72.0,81,29.74,10.0,NNE,15.0,21.9,N/A,,Partly Cloudy,20,2012-10-25 08:53:00
5:53 AM,78.1,72.0,81,29.74,10.0,NNE,12.7,21.9,N/A,,Clear,20,2012-10-25 09:53:00
6:53 AM,78.1,72.0,81,29.75,10.0,NNE,17.3,26.5,N/A,,Clear,20,2012-10-25 10:53:00
7:53 AM,77.0,72.0,84,29.77,8.0,NNE,15.0,24.2,0.00,Rain,Light Rain,20,2012-10-25 11:53:00
8:20 AM,75.2,71.6,89,29.78,2.5,NE,17.3,24.2,N/A,Rain,Rain,40,2012-10-25 12:20:00
8:39 AM,75.2,71.6,89,29.77,10.0,NNE,9.2,18.4,0.17,Rain,Light Rain,20,2012-10-25 12:39:00
8:46 AM,75.2,73.4,94,29.77,10.0,NNE,11.5,18.4,0.17,,Scattered Clouds,20,2012-10-25 12:46:00
8:53 AM,75.9,73.0,91,29.77,10.0,NNE,15.0,21.9,0.17,,Scattered Clouds,20,2012-10-25 12:53:00
9:53 AM,77.0,71.1,82,29.78,10.0,NNE,16.1,23.0,0.00,,Scattered Clouds,20,2012-10-25 13:53:00
10:53 AM,77.0,72.0,84,29.78,10.0,NNE,11.5,-,0.03,,Scattered Clouds,20,2012-10-25 14:53:00
11:28 AM,77.0,71.6,83,29.78,1.8,NNE,20.7,27.6,0.00,Rain,Heavy Rain,20,2012-10-25 15:28:00
11:32 AM,75.2,71.6,89,29.78,1.0,NE,12.7,27.6,0.17,Rain,Heavy Rain,40,2012-10-25 15:32:00
11:36 AM,75.2,71.6,89,29.78,1.2,NNE,11.5,27.6,0.27,Rain,Light Rain,20,2012-10-25 15:36:00
11:38 AM,75.2,71.6,89,29.77,2.0,NNE,13.8,21.9,0.27,Rain,Light Rain,20,2012-10-25 15:38:00
11:45 AM,75.2,71.6,89,29.78,10.0,NNE,15.0,21.9,0.28,Rain,Light Rain,20,2012-10-25 15:45:00
11:53 AM,77.0,72.0,84,29.77,10.0,NNE,16.1,25.3,0.28,Rain,Light Rain,20,2012-10-25 15:53:00
12:02 PM,78.8,73.4,83,29.77,10.0,NNE,13.8,24.2,0.00,,Scattered Clouds,20,2012-10-25 16:02:00
12:53 PM,78.1,72.0,81,29.75,10.0,North,13.8,21.9,0.00,,Partly Cloudy,360,2012-10-25 16:53:00
1:53 PM,79.0,71.1,77,29.72,10.0,North,15.0,24.2,N/A,,Clear,10,2012-10-25 17:53:00
2:53 PM,79.0,71.1,77,29.69,10.0,North,16.1,27.6,N/A,,Partly Cloudy,10,2012-10-25 18:53:00
3:53 PM,73.0,66.0,79,29.70,10.0,ENE,15.0,31.1,0.00,Rain,Light Rain,60,2012-10-25 19:53:00
4:53 PM,75.0,71.1,87,29.67,10.0,North,12.7,17.3,0.03,,Mostly Cloudy,10,2012-10-25 20:53:00
5:53 PM,78.1,71.1,79,29.69,10.0,NNE,21.9,32.2,0.00,Rain,Light Rain,20,2012-10-25 21:53:00
6:53 PM,75.9,68.0,76,29.71,10.0,NNE,19.6,32.2,0.00,Rain,Light Rain,20,2012-10-25 22:53:00
7:53 PM,75.9,69.1,79,29.73,10.0,NNE,15.0,29.9,0.00,Rain,Light Rain,20,2012-10-25 23:53:00
9:53 PM,77.0,69.1,76,29.73,10.0,NNE,16.1,25.3,N/A,,Partly Cloudy,20,2012-10-26 01:53:00
10:53 PM,77.0,68.0,74,29.72,10.0,North,12.7,24.2,N/A,,Partly Cloudy,10,2012-10-26 02:53:00
11:53 PM,78.1,69.1,74,29.69,10.0,North,19.6,29.9,N/A,,Clear,10,2012-10-26 03:53:00